User: anonymous   Login
Location: Koslow
(50.3020°N, 18.5663°E)
Time: 12:07:19
(UTC+00:00)
Language:

Cosmos 489 Rocket - Orbit

View from above orbital plane
View from above orbital plane
View from above satellite
View from above satellite

Ground track
Ground track

The orbit data is extracted from the following two-line orbital elements,

1  6020U 72035B   20226.92827532 -.00000010 +00000-0 +12482-4 0  9998
2  6020 074.0222 146.6707 0021508 219.2380 208.3759 13.78833130427957
Epoch (UTC): 13 August 2020 22:16:42
Eccentricity: 0.0021508
inclination: 74.0222°
perigee height: 952 km
apogee height: 984 km
right ascension of ascending node: 146.6707°
argument of perigee: 219.2380°
revolutions per day: 13.78833130
mean anomaly at epoch: 208.3759°
orbit number at epoch: 42795

The dashed part of the orbit path shows where the satellite is in the earth's shadow,  

DLR